This is the latest recevied weather packets stored in our database for station/object N3TTT-13. If no packets are shown the sender has not sent any weather packets the latest 1 day(s).
| Time | Temp. | Humidity | Pressure | Rain* | Wind** | Luminosity | Snow |
|---|---|---|---|---|---|---|---|
| 1778030397 | 22.22° C | 63% | 1011.4 hPa | 0 mm | 0 m/s | 0 W/m² | - |
| 1778030094 | 22.22° C | 62% | 1011.3 hPa | 0 mm | 0.45 m/s, 241° | 0 W/m² | - |
| 1778029790 | 22.22° C | 62% | 1011.4 hPa | 0 mm | 0.45 m/s, 303° | 0 W/m² | - |
| 1778029490 | 22.22° C | 61% | 1011.1 hPa | 0 mm | 0.89 m/s, 280° | 0 W/m² | - |
| 1778029185 | 22.22° C | 60% | 1011.1 hPa | 0 mm | 0.89 m/s, 256° | 0 W/m² | - |
| 1778028884 | 22.22° C | 60% | 1011.1 hPa | 0 mm | 0.45 m/s, 254° | 0 W/m² | - |
| 1778028578 | 22.78° C | 59% | 1011.2 hPa | 0 mm | 1.34 m/s, 139° | 0 W/m² | - |
| 1778028277 | 22.78° C | 58% | 1011.1 hPa | 0 mm | 0.45 m/s, 199° | 0 W/m² | - |
| 1778027972 | 22.78° C | 57% | 1011.1 hPa | 0 mm | 0.89 m/s, 220° | 0 W/m² | - |
| 1778027669 | 22.78° C | 58% | 1010.9 hPa | 0 mm | 0.89 m/s, 262° | 0 W/m² | - |
| 1778027366 | 22.78° C | 57% | 1010.9 hPa | 0 mm | 0.45 m/s, 251° | 0 W/m² | - |
| 1778027062 | 22.78° C | 57% | 1010.9 hPa | 0 mm | 0.45 m/s, 242° | 0 W/m² | - |
| 1778026757 | 22.78° C | 57% | 1010.9 hPa | 0 mm | 0.45 m/s, 229° | 0 W/m² | - |
| 1778026455 | 23.33° C | 55% | 1010.9 hPa | 0 mm | 0.45 m/s, 239° | 0 W/m² | - |
| 1778026152 | 23.33° C | 55% | 1010.7 hPa | 0 mm | 1.34 m/s, 241° | 0 W/m² | - |
| 1778025849 | 23.33° C | 55% | 1010.7 hPa | 0 mm | 0 m/s | 0 W/m² | - |
| 1778025546 | 23.89° C | 53% | 1010.9 hPa | 0 mm | 1.79 m/s, 136° | 0 W/m² | - |
| 1778025244 | 23.89° C | 53% | 1010.6 hPa | 0 mm | 0.89 m/s, 181° | 0 W/m² | - |
| 1778024940 | 23.89° C | 53% | 1010.8 hPa | 0 mm | 1.79 m/s, 267° | 1 W/m² | - |
| 1778024638 | 23.89° C | 52% | 1010.8 hPa | 0 mm | 0.89 m/s, 235° | 4 W/m² | - |
| 1778024334 | 23.89° C | 52% | 1010.8 hPa | 0 mm | 0.45 m/s, 198° | 7 W/m² | - |
| 1778024032 | 24.44° C | 51% | 1010.7 hPa | 0 mm | 0.89 m/s, 205° | 11 W/m² | - |
| 1778023730 | 23.89° C | 52% | 1010.8 hPa | 0 mm | 0.45 m/s, 246° | 14 W/m² | - |
| 1778023428 | 23.89° C | 50% | 1010.8 hPa | 0 mm | 0.45 m/s, 8° | 17 W/m² | - |
| 1778023124 | 23.89° C | 51% | 1010.7 hPa | 0 mm | 0.45 m/s, 258° | 21 W/m² | - |
* Rain latest hour (hover to see other rain measurements)
** Current wind speed in m/s (hover to see current wind gust speed)